Veracruz Airport, Mexico

6:13 PM CST on November 21, 2017 (GMT -0600)
Gen Heriberto Jara International

Weather History for MMVR - May, 2013

Change the Weather History Date:

Saturday, May 18, 2013

  Actual Average Record
Temperature  
Mean Temperature 84 °F -  
Max Temperature 93 °F 89 °F 95 °F (2017)
Min Temperature 75 °F 74 °F 66 °F (2006)
Cooling Degree Days 19    
Growing Degree Days 34 (Base 50)    
Moisture  
Dew Point 73 °F    
Average Humidity 74    
Maximum Humidity 89    
Minimum Humidity 46    
Precipitation  
Precipitation 0.00 in - - ()
Sea Level Pressure  
Sea Level Pressure 29.85 in    
Wind  
Wind Speed 4 mph ()    
Max Wind Speed 16 mph    
Max Gust Speed -    
Visibility 4.0 miles    
Events      
Averages and records for this station are not official NWS values.
T = Trace of Precipitation, MM = Missing Value Source: Averaged Metar Reports

Daily Weather History Graph

Daily Weather History Graph

Search for Another Location

Airport or City:

Trip Planner

Search our weather history database for the weather conditions in past years. The results will help you decide how hot, cold, wet, or windy it might be!

Date:

Astronomy

May. 18, 2013 Rise Set
Actual Time 6:48 AM CDT 7:53 PM CDT
Civil Twilight 6:25 AM CDT 8:17 PM CDT
Nautical Twilight 5:57 AM CDT 8:45 PM CDT
Astronomical Twilight 5:28 AM CDT 9:13 PM CDT
Moon 1:51 PM CDT (5/18) 1:45 AM CDT (5/18)
Length of Visible Light 13h 52m
Length of Day
13h 04m
First Quarter, 55% of the Moon is Illuminated
May 18
First Quarter
May 24
Full
May 31
Last Quarter
Jun 8
New
Jun 16
First Quarter

Hourly Weather History & Observations

Time (CDT) Temp. Heat Index Dew Point Humidity Pressure Visibility Wind Dir Wind Speed Gust Speed Precip Events Conditions
5:05 AM 75.2 °F - 71.6 °F 89% 29.85 in 5.0 mi East 2.3 mph - N/A   Mostly Cloudy
6:09 AM 75.2 °F - 71.6 °F 89% 29.86 in 5.0 mi North 2.3 mph - N/A   Mostly Cloudy
6:52 AM 77.0 °F - 73.4 °F 89% 29.88 in 1.0 mi Calm Calm - N/A   Mostly Cloudy
7:28 AM 77.0 °F - 73.4 °F 89% 29.89 in 1.5 mi Calm Calm - N/A   Haze
7:47 AM 77.0 °F - 73.4 °F 89% 29.89 in 1.5 mi Calm Calm - N/A   Haze
8:43 AM 78.8 °F - 75.2 °F 89% 29.90 in 1.5 mi Calm Calm - N/A   Haze
9:42 AM 82.4 °F 88.2 °F 73.4 °F 74% 29.91 in 2.0 mi Calm Calm - N/A   Haze
10:22 AM 86.0 °F 91.8 °F 71.6 °F 62% 29.90 in 4.0 mi Calm Calm - N/A   Scattered Clouds
10:52 AM 87.8 °F 93.8 °F 71.6 °F 58% 29.89 in 5.0 mi ESE 3.5 mph - N/A   Scattered Clouds
11:45 AM 89.6 °F 94.7 °F 69.8 °F 52% 29.89 in 4.0 mi SE 3.5 mph - N/A   Scattered Clouds
12:43 PM 93.2 °F 98.8 °F 69.8 °F 46% 29.86 in 4.0 mi SE 6.9 mph - N/A   Scattered Clouds
1:44 PM 93.2 °F 100.5 °F 71.6 °F 49% 29.84 in 4.0 mi East 11.5 mph - N/A   Scattered Clouds
2:45 PM 91.4 °F 96.8 °F 69.8 °F 49% 29.82 in 4.0 mi East 13.8 mph - N/A   Scattered Clouds
3:42 PM 89.6 °F 98.2 °F 73.4 °F 59% 29.80 in 4.0 mi ESE 13.8 mph - N/A   Scattered Clouds
4:48 PM 86.0 °F 95.1 °F 75.2 °F 70% 29.81 in 4.0 mi East 16.1 mph - N/A   Scattered Clouds
5:47 PM 86.0 °F 95.1 °F 75.2 °F 70% 29.78 in 5.0 mi East 15.0 mph - N/A   Scattered Clouds
6:48 PM 82.4 °F 89.5 °F 75.2 °F 79% 29.75 in 6.0 mi ESE 11.5 mph - N/A   Mostly Cloudy
7:47 PM 80.6 °F 86.2 °F 75.2 °F 84% 29.82 in 5.0 mi ENE 5.8 mph - N/A   Mostly Cloudy
8:46 PM 80.6 °F 86.2 °F 75.2 °F 84% 29.83 in 6.0 mi East 3.5 mph - N/A   Scattered Clouds
9:50 PM 78.8 °F - 75.2 °F 89% 29.79 in 6.0 mi NE 4.6 mph - N/A   Scattered Clouds
10:43 PM 78.8 °F - 75.2 °F 89% 29.88 in 6.0 mi NNW 3.5 mph - N/A   Mostly Cloudy